[[{"header":{"parameterUnit":"m.s-1","parameterCategory":1,"la1":30.2991,"la2":30.254,"lo1":-89.0895,"lo2":-89.0444,"dy":0.0017,"dx":0.0017,"nx":28,"ny":28,"refTime":"2024-07-17T21:00:00:Z","depth":0,"parameterNumber":2,"parameterNumberName":"U-component_of_WINDS"},"data":[0,0,0,0,0,0,0,0,0,0,0,0,0,0,0,0,0,0,0,0,0,0,0,0,0,0,0,0,0,0,0,0,0,0,0,0,0,0,0,0,0,0,0,0,0,0,0,0,0,0,0,0,0,0,0,0,0,0,3.2052,3.2052,0,3.2048,3.2048,3.2047,3.2005,3.2004,3.2003,3.2002,3.1996,3.1997,3.1997,0,0,0,0,0,0,0,0,0,0,0,0,0,3.202,3.2021,3.2052,3.2052,3.2052,3.2048,3.2048,3.2047,3.2005,3.2004,3.2003,3.2002,3.1996,3.1997,3.1998,0,0,0,0,0,0,0,0,0,0,0,0,0,3.2027,3.2022,3.2052,3.203,3.2029,3.2048,3.2048,3.2047,3.2006,3.2004,3.2003,3.2001,3.1995,3.1996,3.1998,3.2037,0,0,3.2001,3.2002,0,0,0,0,0,0,0,0,3.2027,3.2028,3.2034,3.2032,3.203,3.2025,3.2034,3.2044,3.2006,3.2014,3.2002,3.2,3.2007,3.2007,3.201,3.2036,3.2036,3.2002,3.2002,3.2003,3.2003,0,0,0,0,0,0,0,3.2026,3.2028,3.205,3.2034,3.2031,3.202,3.2019,3.2036,3.2019,3.2013,3.201,3.2011,3.2005,3.2009,3.2009,3.2036,3.2001,3.2003,3.2003,3.2004,3.209,3.2092,0,0,0,0,0,0,3.2029,3.2028,3.205,3.205,3.2024,3.2022,3.2021,3.2028,3.2019,3.2016,3.2012,3.2009,3.2007,3.2008,3.2009,3.2051,3.2003,3.2004,3.2005,3.2089,3.2091,3.2092,0,0,0,0,0,0,3.2029,3.2032,3.2051,3.2038,3.204,3.2024,3.2033,3.2029,3.2032,3.2018,3.2015,3.2018,3.2006,3.2007,3.2029,3.205,3.2004,3.2006,3.2087,3.2089,3.2092,3.2137,0,0,0,0,0,0,3.2028,3.2032,3.2047,3.2039,3.2041,3.2072,3.2034,3.203,3.2034,3.203,3.2023,3.202,3.2005,3.2028,3.203,3.2051,3.2006,3.2085,3.2088,3.2091,3.2134,3.2141,3.2147,0,0,0,0,0,3.2027,3.2061,3.2048,3.2051,3.206,3.2074,3.2075,3.2057,3.2037,3.2051,3.2041,3.202,3.2048,3.203,3.2033,3.2054,3.2083,3.2087,3.2091,3.2131,3.214,3.2147,0,0,0,0,0,0,3.2073,3.206,3.2045,3.2078,3.2077,3.2067,3.2085,3.2067,3.2072,3.2067,3.2044,3.2043,3.2068,3.2064,3.2044,3.209,3.2062,3.2066,3.2092,3.21,3.2106,3.2106,3.2007,0,0,0,0,0,3.2086,3.21,3.2087,3.2117,3.2117,3.2101,3.2107,3.2093,3.2091,3.209,3.2082,3.2081,3.2088,3.2094,3.2101,3.2133,3.213,3.2149,3.2156,3.2161,3.2165,3.2178,3.2186,3.2104,3.2104,3.2104,0,0,3.2115,3.211,3.2119,3.2126,3.2124,3.2136,3.2101,3.2117,3.2125,3.2092,3.2112,3.2106,3.2103,3.2129,3.2141,3.2126,3.2187,3.2166,3.217,3.2171,3.2183,3.2191,3.2197,3.2106,3.2106,3.2106,0,0,3.2173,3.2172,3.2195,3.2193,3.219,3.2178,3.2184,3.2175,3.217,3.219,3.2164,3.2173,3.2188,3.2186,3.2186,3.2241,3.222,3.2244,3.2277,3.2291,3.2297,3.2303,3.232,3.2326,3.2247,3.2247,3.2247,0,3.2209,3.2228,3.2209,3.2225,3.2227,3.2198,3.2219,3.2218,3.2218,3.2219,3.2203,3.2219,3.2215,3.2239,3.2252,3.2255,3.2258,3.2244,3.2298,3.2304,3.2309,3.2324,3.2331,3.225,3.225,3.2249,3.2249,0,3.2271,3.2284,3.2303,3.2302,3.2306,3.2325,3.2307,3.2314,3.2299,3.2289,3.2307,3.2301,3.2304,3.2309,3.2296,3.2331,3.2322,3.2303,3.2274,3.2319,3.2333,3.2339,3.2254,3.2253,3.2252,3.2251,0,0,3.2358,3.2345,3.2352,3.2349,3.2343,3.2352,3.2368,3.2372,3.2376,3.2376,3.2388,3.24,3.2381,3.2382,3.2367,3.238,3.2419,3.2358,3.2358,3.2368,3.2454,3.2467,3.2474,3.2406,3.2407,3.2408,3.2453,0,3.2412,3.244,3.2422,3.2452,3.2462,3.2433,3.2447,3.2443,3.2434,3.244,3.2429,3.2437,3.2413,3.2413,3.2424,3.2412,3.2436,3.2409,3.2415,3.2415,3.2415,3.2482,3.2497,3.254,3.2459,3.246,3.2461,0,3.2479,3.2481,3.2512,3.25,3.2503,3.2516,3.2516,3.2523,3.2517,3.2509,3.2509,3.249,3.2503,3.2476,3.2493,3.2475,3.2476,3.247,3.2472,3.247,3.244,3.248,3.2553,3.2559,3.247,3.2469,3.2469,0,3.2536,3.2546,3.2565,3.2565,3.2552,3.2561,3.2557,3.2549,3.2551,3.2551,3.2552,3.2553,3.2553,3.2554,3.2535,3.2518,3.2553,3.2525,3.2545,3.2545,3.2553,3.2552,3.2625,3.2557,3.2557,3.2557,3.2557,0,3.2597,3.2616,3.259,3.2602,3.2622,3.26,3.262,3.2612,3.2605,3.2613,3.2589,3.2597,3.2573,3.2577,3.2563,3.2577,3.2578,3.257,3.2566,3.2571,3.2572,3.257,3.2566,3.2559,3.2558,3.2558,3.2558,0,3.2664,3.2648,3.2666,3.2652,3.2649,3.2664,3.2651,3.266,3.2648,3.2659,3.266,3.2641,3.2645,3.2626,3.2628,3.2618,3.2638,3.263,3.264,3.2637,3.2656,3.2654,3.2729,3.2737,3.2667,3.2667,3.2668,0,3.2703,3.2717,3.2704,3.2708,3.2704,3.271,3.2712,3.269,3.2692,3.2685,3.2695,3.2697,3.2697,3.2704,3.269,3.269,3.268,3.2706,3.268,3.2684,3.2677,3.2675,3.2675,3.2711,3.2712,3.2713,3.2713,0,3.2773,3.2764,3.2767,3.2767,3.2769,3.2768,3.2765,3.2769,3.2745,3.2749,3.2752,3.2753,3.2753,3.2754,3.2751,3.2744,3.2724,3.2722,3.2726,3.2731,3.2735,3.273,3.2653,3.272,3.2719,3.2719,3.2718,3.2718,3.2826,3.2835,3.2827,3.283,3.2826,3.2823,3.283,3.2818,3.2821,3.2819,3.2806,3.2811,3.2802,3.2796,3.2791,3.2793,3.2781,3.2788,3.2789,3.279,3.2792,3.2736,3.2793,3.2793,3.2793,3.2793,3.2792,0,3.2892,3.2885,3.2888,3.2884,3.2886,3.2868,3.2862,3.2865,3.287,3.2864,3.2864,3.2866,3.2867,3.2852,3.285,3.2855,3.2845,3.2855,3.2853,3.2852,3.2805,3.2801,3.2863,3.2863,3.2863,3.2862,3.2862,3.2862,3.2927,3.2941,3.293,3.2941,3.2933,3.2938,3.2937,3.2933,3.2927,3.2931,3.2931,3.2922,3.2911,3.2908,3.2906,3.2902,3.2901,3.2913,3.2905,3.2862,3.2855,3.2849,3.2844,3.2914,3.2914,3.2951,3.2951,3.2952]},{"header":{"parameterUnit":"m.s-1","parameterCategory":1,"la1":30.2991,"la2":30.254,"lo1":-89.0895,"lo2":-89.0444,"dy":0.0017,"dx":0.0017,"nx":28,"ny":28,"refTime":"2024-07-17T21:00:00:Z","depth":0,"parameterNumber":3,"parameterNumberName":"V-component_of_WINDS"},"data":[0,0,0,0,0,0,0,0,0,0,0,0,0,0,0,0,0,0,0,0,0,0,0,0,0,0,0,0,0,0,0,0,0,0,0,0,0,0,0,0,0,0,0,0,0,0,0,0,0,0,0,0,0,0,0,0,0,0,4.6442,4.6444,0,4.6651,4.6654,4.6656,4.6728,4.6727,4.6726,4.6726,4.6934,4.694,4.6947,0,0,0,0,0,0,0,0,0,0,0,0,0,4.6096,4.6102,4.6441,4.6444,4.6447,4.6651,4.6654,4.6656,4.6728,4.6727,4.6726,4.6725,4.6932,4.694,4.6947,0,0,0,0,0,0,0,0,0,0,0,0,0,4.6269,4.6104,4.6441,4.6507,4.6515,4.665,4.6654,4.6657,4.6728,4.6727,4.6726,4.6725,4.693,4.6939,4.6948,4.7031,0,0,4.6977,4.6981,0,0,0,0,0,0,0,0,4.626,4.6282,4.6495,4.6503,4.6512,4.6662,4.6608,4.6782,4.6729,4.6647,4.6726,4.6724,4.6844,4.6861,4.6903,4.7041,4.7049,4.6978,4.6984,4.6988,4.699,0,0,0,0,0,0,0,4.6247,4.6273,4.6524,4.6498,4.6508,4.6524,4.6547,4.6642,4.675,4.6654,4.666,4.6684,4.6849,4.6893,4.6908,4.7053,4.6978,4.6986,4.6992,4.6996,4.7267,4.7268,0,0,0,0,0,0,4.6225,4.6263,4.6518,4.653,4.638,4.6531,4.6557,4.6615,4.6749,4.6768,4.6685,4.6687,4.6878,4.6897,4.6915,4.702,4.6988,4.6997,4.7002,4.7265,4.7267,4.7269,0,0,0,0,0,0,4.6218,4.6247,4.6509,4.6398,4.6433,4.6539,4.6603,4.662,4.6665,4.6772,4.6791,4.6711,4.6877,4.6902,4.7002,4.7028,4.7001,4.7009,4.7263,4.7266,4.7268,4.723,0,0,0,0,0,0,4.6207,4.6244,4.6278,4.6399,4.6439,4.6594,4.6605,4.6625,4.6682,4.6686,4.6802,4.682,4.6878,4.6987,4.7011,4.7041,4.7017,4.7261,4.7264,4.7267,4.7229,4.7231,4.7232,0,0,0,0,0,4.6195,4.6258,4.628,4.631,4.6484,4.6595,4.6618,4.6686,4.6683,4.6717,4.6786,4.6816,4.7021,4.6997,4.7024,4.7057,4.726,4.7263,4.7267,4.7229,4.7231,4.7232,0,0,0,0,0,0,4.6137,4.6276,4.6301,4.6406,4.6488,4.6607,4.6653,4.6686,4.6769,4.6769,4.6848,4.6873,4.6966,4.7022,4.6992,4.7143,4.7142,4.7151,4.7104,4.7106,4.7108,4.7092,4.7025,0,0,0,0,0,4.6136,4.6217,4.6333,4.6414,4.6455,4.6546,4.6597,4.6642,4.673,4.6765,4.6841,4.6923,4.7006,4.7059,4.7142,4.7238,4.7263,4.7274,4.7275,4.7275,4.7282,4.7335,4.7341,4.728,4.728,4.728,0,0,4.6136,4.6222,4.6268,4.6405,4.6474,4.6554,4.6575,4.6659,4.6718,4.6777,4.6876,4.6934,4.7031,4.7129,4.7175,4.7178,4.7304,4.728,4.7279,4.7286,4.7339,4.7345,4.735,4.7282,4.7282,4.7281,0,0,4.6176,4.625,4.6326,4.6395,4.65,4.656,4.6578,4.6692,4.6733,4.6834,4.688,4.695,4.7092,4.7158,4.7211,4.7274,4.7304,4.7298,4.7305,4.7356,4.7361,4.7365,4.7387,4.7394,4.7305,4.7305,4.7305,0,4.6162,4.6287,4.6359,4.6441,4.6499,4.6558,4.6633,4.6696,4.6821,4.6859,4.686,4.7038,4.7108,4.7221,4.7236,4.7277,4.7298,4.7286,4.7355,4.736,4.7365,4.7386,4.7394,4.7303,4.7304,4.7304,4.7304,0,4.6263,4.6348,4.6396,4.6518,4.6581,4.6658,4.6741,4.6796,4.6835,4.6894,4.6994,4.7079,4.7179,4.7209,4.7248,4.7328,4.7326,4.734,4.734,4.7368,4.739,4.7399,4.7301,4.7302,4.7302,4.7303,0,0,4.6274,4.6434,4.6451,4.6506,4.6625,4.6691,4.677,4.687,4.6914,4.6998,4.7065,4.7183,4.7197,4.7256,4.7302,4.7347,4.739,4.7355,4.7359,4.7358,4.7481,4.7469,4.7478,4.741,4.7412,4.7414,4.7473,0,4.6329,4.6476,4.6543,4.6658,4.6736,4.6792,4.6861,4.694,4.6997,4.7069,4.7131,4.7213,4.7226,4.7261,4.7308,4.7375,4.7415,4.7371,4.7471,4.7474,4.7445,4.7489,4.7478,4.7529,4.7481,4.7483,4.7484,0,4.6414,4.6499,4.6623,4.6732,4.6767,4.6828,4.6924,4.6993,4.7083,4.7121,4.7186,4.7231,4.7313,4.7308,4.7422,4.739,4.7435,4.7473,4.7477,4.7488,4.7481,4.7501,4.7548,4.7555,4.7498,4.7497,4.7496,0,4.6407,4.6553,4.6646,4.6692,4.6821,4.6862,4.6918,4.7007,4.7062,4.7145,4.7181,4.7271,4.732,4.7388,4.7454,4.7445,4.7561,4.7562,4.7593,4.7591,4.7615,4.7613,4.7669,4.7644,4.7644,4.7644,4.7644,0,4.6462,4.6535,4.6645,4.6702,4.6785,4.686,4.6939,4.6998,4.7076,4.7144,4.7197,4.7258,4.7343,4.7414,4.7466,4.7552,4.7574,4.7605,4.7618,4.76,4.7596,4.763,4.7628,4.7646,4.7646,4.7645,4.7645,0,4.6469,4.6546,4.6651,4.6765,4.6795,4.6851,4.6948,4.7004,4.7062,4.7147,4.7171,4.7263,4.735,4.7423,4.7537,4.7572,4.766,4.7675,4.763,4.7637,4.7664,4.766,4.7744,4.7758,4.7724,4.7724,4.7724,0,4.6499,4.6557,4.6677,4.6727,4.6782,4.6862,4.6919,4.6994,4.705,4.7156,4.7198,4.7289,4.7366,4.7502,4.7577,4.7664,4.7682,4.7705,4.7695,4.7675,4.7681,4.7677,4.7682,4.7705,4.7705,4.7705,4.7705,0,4.6543,4.6578,4.6659,4.6752,4.6819,4.6896,4.6974,4.7011,4.7099,4.7159,4.725,4.731,4.7426,4.7515,4.761,4.7664,4.7699,4.7708,4.772,4.7702,4.7673,4.7688,4.7631,4.7706,4.7706,4.7706,4.7706,4.7706,4.6562,4.6616,4.6709,4.6796,4.6863,4.6934,4.6992,4.7058,4.7136,4.7238,4.7277,4.7368,4.7455,4.7586,4.7641,4.7712,4.7717,4.7734,4.7738,4.7741,4.7738,4.7662,4.773,4.773,4.773,4.773,4.773,0,4.6608,4.6671,4.675,4.6858,4.6926,4.6955,4.7042,4.7096,4.7177,4.7256,4.7331,4.7433,4.752,4.7601,4.7691,4.7732,4.775,4.7753,4.7751,4.7762,4.7729,4.771,4.7737,4.7737,4.7737,4.7737,4.7737,4.7737,4.664,4.6732,4.6777,4.6901,4.6963,4.7055,4.7102,4.7167,4.723,4.7343,4.7416,4.7469,4.7548,4.7644,4.7723,4.7745,4.7775,4.7774,4.7799,4.7767,4.7765,4.7763,4.7746,4.778,4.778,4.7827,4.7827,4.7827]}]]